#timestamp,LO_Frequency,Hit,StdDev 
1547899215.9,286046998.4,N
1547899235.7,286046998.3,N
1547899255.6,286046999.2,N
1547899275.4,286047001.0,N
1547899295.2,286046999.1,N
1547899315.1,286046998.4,N
1547899316.0,286046998.4,N
1547899335.8,286046999.5,N
1547899355.6,286046997.0,N
1547899375.5,286046997.0,N
1547899395.3,286046998.7,N
1547899415.2,286046998.4,N
1547899435.9,286046999.0,N
1547899455.7,286046997.0,N
1547899475.6,286046993.6,Y
1547899495.4,286046993.8,P
1547899515.2,286046995.4,N
1547899535.1,286046997.4,N
1547899536.0,286046997.4,N
1547899555.8,286046996.8,N
1547899575.7,286046996.6,N
1547899595.5,286047000.1,N
1547899615.3,286046999.8,N
1547899635.2,286047002.6,N
1547899655.0,286047001.5,N
1547899655.9,286047001.5,N
1547899675.8,286047000.4,N
1547899695.6,286047000.6,N
1547899715.4,286047000.6,N
1547899735.3,286047002.2,N
1547899755.1,286047002.4,N
1547899775.8,286047002.1,N
1547899795.8,286046998.2,N
1547899815.6,286047001.1,N
1547899835.4,286047002.4,N
1547899855.3,286046999.8,N
1547899875.1,286047000.4,N
1547899895.8,286046998.4,N
1547899915.7,286046999.5,N
1547899935.5,286046998.4,N
1547899955.4,286046998.8,N
1547899975.2,286046999.9,N
1547899995.0,286046998.3,N
1547899995.9,286046998.3,N
1547900015.8,286047000.9,N
1547900035.6,286047000.3,N
1547900055.5,286046999.7,N
1547900075.3,286047000.3,N
1547900095.1,286046999.7,N
1547900115.9,286047002.3,N
1547900135.7,286047001.9,N
1547900155.6,286047001.6,N
1547900175.4,286047001.6,N
1547900195.2,286047002.7,N
1547900215.1,286046998.5,N
1547900216.0,286046998.5,N
1547900235.8,286046998.9,N
1547900255.7,286046997.4,N
1547900275.5,286046998.5,N
1547900295.3,286047000.7,N
1547900315.2,286046998.9,N
1547900335.0,286046996.6,N
1547900335.9,286046996.6,N
1547900355.8,286046999.2,N
1547900375.6,286046997.5,N
1547900395.4,286046999.6,N
1547900415.3,286046999.2,N
1547900435.1,286047000.9,N
1547900455.8,286046999.8,N
1547900475.7,286047001.5,N
1547900495.5,286047004.3,N
1547900545.4,286047004.1,E
1547900555.3,286047002.7,N
1547900575.1,286046999.2,P
1547900595.9,286046998.7,N
1547900615.7,286046998.5,N
1547900635.6,286047000.8,N
1547900655.4,286047000.7,N
1547900675.2,286047001.0,N
1547900695.1,286046999.7,N
1547900696.0,286046999.7,N
1547900715.8,286047000.7,N
1547900735.7,286046999.9,N
1547900755.5,286047002.0,N
1547900775.3,286047000.1,N
1547900795.2,286047000.0,N
1547900815.0,286047002.6,N
1547900815.9,286047002.6,N
1547900835.8,286047000.4,N
1547900855.6,286047001.1,N
1547900875.4,286046997.7,N
1547900895.3,286046995.0,Y
1547900915.1,286046997.7,P
1547900935.8,286046999.6,N
1547900955.7,286046998.3,N
1547900975.5,286046998.7,N
1547900995.4,286046998.4,N
1547901015.2,286046998.3,N
1547901035.0,286046998.7,N
1547901035.9,286046998.7,N
1547901055.8,286046998.7,N
1547901075.6,286046997.8,Y
1547901095.4,286046998.7,P
1547901115.3,286046998.6,P
1547901135.1,286046998.3,P
1547901155.9,286046998.3,Y
1547901175.7,286047000.5,P
1547901195.5,286047002.6,N
1547901215.4,286047004.1,N
1547901235.2,286047003.6,N
1547901255.0,286047003.3,N
1547901256.0,286047003.3,N
1547901275.8,286047001.7,N
1547901295.6,286047002.0,N
1547901315.5,286047002.4,N
1547901335.3,286047000.9,N
1547901355.1,286046999.9,N
1547901375.9,286047002.1,N
1547901395.7,286047002.9,N
1547901415.6,286047005.1,Y
1547901435.4,286047004.1,P
1547901455.2,286047002.6,N
1547901475.1,286047000.6,N
1547901476.0,286047000.6,N
1547901495.8,286046998.1,N
1547901515.7,286046998.9,N
1547901535.5,286046999.2,N
1547901555.3,286046999.6,N
1547901575.2,286046997.6,N
1547901595.0,286046995.1,N
1547901595.9,286046995.1,N
1547901615.7,286046995.9,N
1547901635.6,286046993.3,N
1547901655.4,286046993.3,N
1547901675.3,286046995.7,N
1547901695.1,286046995.4,N
1547901696.0,286046995.4,N
1547901715.8,286046995.2,N
1547901735.7,286046995.9,N
1547901755.5,286046995.4,N
1547901775.4,286046996.5,N
1547901795.2,286046998.6,N
1547901815.0,286047001.0,N
1547901815.9,286047001.0,N
1547901835.8,286047000.3,N
1547901855.6,286047001.8,N
1547901875.4,286047002.7,N
1547901895.3,286047001.6,N
1547901915.1,286047002.2,N
1547901935.9,286047001.3,N
1547901955.7,286047004.4,N
1547901975.5,286047004.4,N
1547901995.4,286047001.7,N
1547902015.2,286047002.0,N
1547902035.0,286047001.9,N
1547902035.9,286047001.9,N
1547902055.8,286047004.4,N
1547902075.6,286047004.4,N
1547902095.5,286046999.9,N
1547902115.3,286047002.2,N
1547902135.1,286047003.5,N
1547902155.9,286047004.3,N
1547902175.7,286047004.3,N
1547902195.5,286047004.0,N
1547902215.4,286047004.4,N
1547902235.2,286047001.9,N
1547902255.1,286047001.5,N
1547902256.0,286047001.5,N
1547902275.8,286047004.2,N
1547902295.6,286047001.6,N
1547902315.5,286047001.3,N
1547902335.3,286047001.9,N
1547902355.1,286047001.9,N
1547902375.9,286047002.4,N
1547902395.7,286047002.6,N
1547902415.5,286047000.4,N
1547902435.4,286046998.2,N
1547902455.3,286046998.8,N
1547902475.1,286046998.1,N
1547902495.8,286047000.9,N
1547902515.7,286046998.5,N
1547902535.5,286046998.6,N
1547902555.4,286046998.2,N
1547902575.2,286046998.9,N
1547902595.3,286046998.4,N
1547902615.1,286046998.8,N
1547902635.9,286046998.4,N
1547902655.7,286047000.6,N
1547902675.5,286047000.9,N
1547902695.4,286046999.2,N
1547902715.2,286046999.6,N
1547902735.1,286046997.0,N
1547902736.0,286046997.0,N
1547902755.8,286046994.9,N
1547902775.6,286046995.2,N
1547902795.5,286046995.4,N
